Location: Halle (Saale)
(51.4970°N, 11.9688°E)
Time: 21:19:44
(UTC+02:00)

ISS - Visible Passes

Search period start: 22 October 2021 00:00
Search period end: 31 October 2021 23:00
Orbit: 417 x 423 km, 51.6° (Epoch: 22 October)

Date Brightness Start Highest point End Pass type
(mag) Time Alt. Az. Time Alt. Az. Time Alt. Az.
22 Oct -1.2 07:02:51 10° SSW 07:05:25 20° SE 07:08:00 10° E visible
23 Oct -0.9 06:16:28 10° S 06:18:23 14° SE 06:20:18 10° ESE visible
24 Oct -2.4 07:04:20 10° SW 07:07:30 39° SSE 07:10:41 10° E visible
25 Oct -2.0 06:17:50 13° SSW 06:20:22 29° SSE 06:23:20 10° E visible
26 Oct -1.7 05:32:52 20° SSE 05:33:16 21° SE 05:35:52 10° E visible
26 Oct -3.5 07:06:20 10° WSW 07:09:41 67° SSE 07:13:03 10° E visible
27 Oct -0.5 04:47:48 11° ESE 04:47:48 11° ESE 04:48:10 10° ESE visible
27 Oct -3.2 06:20:48 25° SW 06:22:28 53° SSE 06:25:47 10° E visible
28 Oct -2.6 05:35:38 38° SE 05:35:38 38° SE 05:38:28 10° E visible
28 Oct -3.7 07:08:37 10° W 07:11:57 90° NNE 07:15:20 10° E visible
29 Oct -0.6 04:50:23 14° E 04:50:23 14° E 04:51:05 10° E visible
29 Oct -3.8 06:23:22 35° WSW 06:24:40 81° SSE 06:28:03 10° E visible
30 Oct -2.9 05:38:05 50° ESE 05:38:05 50° ESE 05:40:45 10° E visible
30 Oct -3.8 07:11:03 12° W 07:14:13 86° N 07:17:35 10° E visible
31 Oct -0.6 03:52:44 15° E 03:52:44 15° E 03:53:26 10° E visible
31 Oct -3.8 05:25:43 38° W 05:26:54 85° N 05:30:17 10° E visible
